Погода в Выкатном

Россия / Ханты-Мансийский автономный округ - Югра     60°38′51″N   69°33′24″E
темп.,
°C
ветер,
м/с
пор.,
м/с
влажн.,
%
обл.,
%
осадки,
мм/ч
давл.,
гПа
погр.,
м
7 мая, пт
пт723:00+7з9146586 0.1 1003489
02:00+4з1014658 0.1 1004787
05:00+2з914675 0.1 1006943
08:00+5з12145787 0.0 10071338
11:00+8з12154699 0.0 10081785
14:00+12зсз12173643 0.0 10092072
17:00+13зсз1115325 0.0 10102140
20:00+11зсз594311 0.0 1012155
8 мая, сб
сб823:00+8зсз445814 0.0 101432
02:00+7сз44635 0.0 101540
05:00+4ссв34654 0.0 101775
08:00+8с34495 0.0 1018383
11:00+12ссз33405 0.0 1018674
14:00+15сз234116 0.0 1018903
17:00+16св224217 0.0 1018786
20:00+15в3348100 0.0 101833
9 мая, вс
вс923:00+11вюв466052 0.0 101993
02:00+10ююв576699 0.3 1019134
05:00+9юв3470100 0.3 102067
08:00+12юв325967 0.0 1021319
11:00+15ссв21535 0.0 1021671
14:00+18с34480 0.0 10221389
17:00+19ссв55345 0.0 10221776
20:00+15св710550 0.0 1023375
10 мая, пн
пн1023:00+8всв611680 0.0 1025334
02:00+6всв587570 0.0 1026234
05:00+5всв478125 0.0 1027229
08:00+9в45670 0.0 1026517
11:00+13всв34500 0.0 10261093
14:00+16св444118 0.0 10241390
17:00+16всв663922 0.0 10231387
20:00+13в46492 0.0 1023161
11 мая, вт
вт1123:00+10вюв45623 0.0 102385
02:00+8вюв45643 0.0 102368
05:00+7юв35722 0.0 102392
08:00+12ююв45522 0.0 1022451
11:00+15ю444020 0.0 10211221
14:00+18юз3435100 0.0 10201631
17:00+19зюз2329100 0.0 10191836
20:00+11с111376100 0.0 1019438